This demonstration page uses our WeatherBlox Daily Observations layout. Learn more.

Left ArrowRight Arrow

30.21309, -93.2044

Hourly Observations for June 26, 2019

Temp ( °F °C ) Dew Point ( °F °C ) Humidity (%) Winds ( mph kmh ) Pressure ( in mb ) Visibility ( mi km ) Precip ( " mm )
12:15 am 00:15 Clear 71 21.5 69 20.7 95 95 ENE 3 6 30.09 1019 10 16 0.01 0.25
12:35 am 00:35 Clear 71 21.5 69 20.7 95 95 NE 3 6 30.10 1019 10 16 0.01 0.25
12:55 am 00:55 Clear 71 21.5 69 20.8 96 96 E 3 6 30.09 1019 10 16 0.01 0.25
1:15 am 01:15 Clear 71 21.5 70 21 97 97 E 7 11 30.08 1019 10 16 0.00 0.00
1:35 am 01:35 Clear 71 21.5 70 21 97 97 E 7 11 30.07 1018 10 16 0.01 0.25
1:55 am 01:55 Clear 71 21.7 70 21.1 96 96 E 7 11 30.08 1019 10 16 0.01 0.25
2:15 am 02:15 Clear 71 21.7 70 21.2 97 97 E 6 9 30.08 1019 7 11 0.00 0.00
2:35 am 02:35 Clear 71 21.7 70 21.2 97 97 NE 5 7 30.08 1019 10 16 0.00 0.00
2:55 am 02:55 Clear 72 22 70 21 94 94 ENE 3 6 30.07 1018 10 16 0.00 0.00
3:15 am 03:15 Clear 72 22 70 21 94 94 ENE 3 6 30.07 1018 10 16 0.00 0.00
3:35 am 03:35 Clear 72 22 70 21 94 94 Calm 30.07 1018 10 16 0.01 0.25
3:55 am 03:55 Clear 72 22.1 70 21 94 94 Calm 30.07 1018 10 16 0.01 0.25
4:15 am 04:15 Clear 72 22 70 21 94 94 Calm 30.07 1018 10 16 0.00 0.00
4:35 am 04:35 Clear 72 22 70 21 94 94 NE 3 6 30.08 1019 10 16 0.00 0.00
4:55 am 04:55 Clear 72 22.2 70 21 93 93 E 7 11 30.08 1019 10 16 0.00 0.00
5:15 am 05:15 Clear 72 22.3 70 20.9 92 92 N 5 7 30.09 1019 10 16 0.00 0.00
5:35 am 05:35 Clear 72 22.2 70 21 93 93 ENE 6 9 30.09 1019 10 16 0.00 0.00
6:00 am 06:00 Mostly Cloudy 72 22 70 21 94 94 ENE 5 7 30.10 1019 10 16 0.00 0.00
6:55 am 06:55 Mostly Cloudy 73 23 70 21 89 89 Calm 30.12 1020 10 16 0.00 0.00
7:55 am 07:55 Mostly Cloudy 75 24 72 22 89 89 E 6 9 30.14 1021 10 16 0.00 0.00
8:53 am 08:53 Mostly Cloudy 79 26 73 23 84 84 E 12 19 30.15 1021 10 16 0.00 0.00
9:53 am 09:53 Mostly Cloudy 82 28 75 24 79 79 ESE 9 15 30.16 1021 10 16 0.00 0.00
10:53 am 10:53 Mostly Cloudy 86 30 77 25 75 75 ESE 12 19 30.16 1021 10 16 0.00 0.00
11:25 am 11:25 Mostly Cloudy 86 30 79 26 79 79 SE 12 19 30.16 1021 10 16 0.00 0.00
11:51 am 11:51 Cloudy 86 30 79 26 79 79 SSE 9 15 30.16 1021 10 16 0.00 0.00
12:53 pm 12:53 Partly Cloudy 88 31 79 26 75 75 SE 14 22 30.16 1021 10 16 0.00 0.00
2:55 pm 14:55 Mostly Cloudy 90 32 75 24 63 63 SE 14 22 30.13 1020 10 16 0.00 0.00
3:50 pm 15:50 Mostly Cloudy 90 32 75 24 63 63 SSE 9 15 30.12 1020 10 16 0.00 0.00
4:50 pm 16:50 Mostly Cloudy 88 31 73 23 62 62 S 9 15 30.11 1020 10 16 0.00 0.00
5:45 pm 17:45 Mostly Cloudy 88 31 75 24 66 66 S 7 11 30.12 1020 10 16 0.00 0.00
6:50 pm 18:50 Mostly Cloudy 86 30 75 24 70 70 S 6 9 30.11 1020 10 16 0.00 0.00
9:45 pm 21:45 Mostly Clear 79 26 77 25 94 94 E 8 13 30.12 1020 10 16 0.00 0.00
10:15 pm 22:15 Clear 79 26.1 77 24.8 93 93 ESE 6 9 30.15 1021 10 16 0.00 0.00
10:35 pm 22:35 Clear 80 26.4 77 25 92 92 E 8 13 30.15 1021 10 16 0.00 0.00
10:55 pm 22:55 Clear 80 26.4 77 25 92 92 Calm 30.16 1021 10 16 0.00 0.00
11:15 pm 23:15 Clear 79 26.3 77 25 93 93 Calm 30.16 1021 10 16 0.00 0.00
11:35 pm 23:35 Clear 79 26.3 77 25.2 94 94 ENE 3 6 30.17 1022 10 16 0.00 0.00
11:55 pm 23:55 Clear 79 26 77 24.9 94 94 Calm 30.17 1022 10 16 0.00 0.00

Powered by AerisWeather